Hourly Data Report for October 29, 2015

All times are specified in Local Standard Time (LST). Add 1 hour to adjust for Daylight Saving Time where and when it is observed.

GJOA HAVEN A
NUNAVUT

68°38'08.000" N
95°51'01.000" W
46.90 m
2302337
71597
YHK

Download Data

Hourly Data (October 2015)
Hourly Data Report for October 29, 2015
Temp Definition
°C
Dew Point Temp Definition
°C
Rel Hum Definition
%
Wind Dir Definition
10's deg

Wind Spd Definition
km/h
Visibility Definition
km
Stn Press Definition
kPa
Hmdx Definition


Wind Chill Definition


Weather Definition


TIME
00:00 Legend Double Dagger -17.5 -19.2 87 36 26 16.1 100.69   -29 Snow
01:00 Legend Double Dagger -18.8 -20.6 86 36 24 16.1 100.72   -30 LegendNANA
02:00 Legend Double Dagger -18.1 -19.8 87 35 22 16.1 100.77   -29 LegendNANA
03:00 Legend Double Dagger -17.8 -19.5 87 35 24 16.1 100.78   -29 Snow
04:00 Legend Double Dagger -18.6 -20.4 86 34 18 16.1 100.81   -28 LegendNANA
05:00 Legend Double Dagger -19.5 -21.3 86 34 21 16.1 100.80   -30 LegendNANA
06:00 Legend Double Dagger -20.5 -22.4 85 35 22 16.1 100.80   -32 LegendNANA
07:00 Legend Double Dagger -21.0 -23.0 84 34 22 16.1 100.78   -32 LegendNANA
08:00 Legend Double Dagger -20.8 -22.8 84 35 18 14.5 100.81   -31 Snow
09:00 Legend Double Dagger -21.1 -23.1 84 35 18 16.1 100.83   -31 LegendNANA
10:00 Legend Double Dagger -20.6 -22.6 84 36 13 16.1 100.83   -29 LegendNANA
11:00 Legend Double Dagger -20.6 -22.5 85 35 17 16.1 100.81   -30 LegendNANA
12:00 Legend Double Dagger -20.4 -22.3 85 35 17 16.1 100.82   -30 LegendNANA
13:00 Legend Double Dagger -20.4 -22.3 85 35 17 16.1 100.79   -30 LegendNANA
14:00 Legend Double Dagger -20.7 -22.7 84 35 15 16.1 100.79   -30 LegendNANA
15:00 Legend Double Dagger -21.1 -23.1 84 35 18 16.1 100.79   -31 LegendNANA
16:00 Legend Double Dagger -21.3 -23.3 84 35 21 16.1 100.78   -32 LegendNANA
17:00 Legend Double Dagger -21.0 -23.0 84 33 18 16.1 100.75   -31 LegendNANA
18:00 Legend Double Dagger -19.7 -21.5 86 36 17 16.1 100.75   -29 LegendNANA
19:00 Legend Double Dagger -18.6 -20.4 86 2 22 16.1 100.72   -29 LegendNANA
20:00 Legend Double Dagger -20.6 -22.5 85 2 18 16.1 100.67   -31 LegendNANA
21:00 Legend Double Dagger -20.1 -22.0 85 1 17 16.1 100.67   -30 LegendNANA
22:00 Legend Double Dagger -19.0 -20.8 86 30 8 16.1 100.67   -25 LegendNANA
23:00 Legend Double Dagger -19.3 -21.1 86 32 9 16.1 100.64   -26 LegendNANA

Notes on Data Quality.

Legend

  • E = Estimated
  • M = Missing
  • NA = Not Available
  • ‡ = Partner data that is not subject to review by the National Climate Archives
Date modified: